Printer-friendly version

IAU Minor Planet Center

Minor Planet Center

MPEC 2000-E46: 2000 EL26

The following Minor Planet Electronic Circular may be linked-to from your own Web pages, but must not otherwise be redistributed electronically.


Read MPEC 2000-E45 Read MPEC 2000-E47


M.P.E.C. 2000-E46                                Issued 2000 Mar. 10, 18:00 UT

     The Minor Planet Electronic Circulars contain information on unusual
         minor planets and routine data on comets.  They are published
   on behalf of Commission 20 of the International Astronomical Union by the
          Minor Planet Center, Smithsonian Astrophysical Observatory,
                          Cambridge, MA 02138, U.S.A.

             Prepared using the Tamkin Foundation Computer Network

             BMARSDEN@CFA.HARVARD.EDU or GWILLIAMS@CFA.HARVARD.EDU
          URL http://cfa-www.harvard.edu/iau/mpc.html  ISSN 1523-6714

                                   2000 EL26

Observations:
     K00E26L* C2000 03 05.16522 10 05 16.97 +20 13 34.4          19.3        704
     K00E26L  C2000 03 05.17844 10 05 15.84 +20 14 12.0          19.9        704
     K00E26L  C2000 03 05.19168 10 05 14.81 +20 14 49.8          19.1        704
     K00E26L  C2000 03 05.20493 10 05 13.76 +20 15 26.5          19.6        704
     K00E26L  C2000 03 05.21817 10 05 12.72 +20 16 05.2          19.7        704
     K00E26L  C2000 03 08.24813 10 01 33.46 +22 38 03.3          19.1        704
     K00E26L  C2000 03 08.26226 10 01 32.39 +22 38 41.6          19.4        704
     K00E26L  C2000 03 08.29088 10 01 30.19 +22 40 01.4          19.6        704
     K00E26L  C2000 03 08.30560 10 01 29.08 +22 40 40.9          19.5        704
     K00E26L  C2000 03 09.29347 10 00 19.55 +23 26 15.3          19.1        704
     K00E26L  C2000 03 09.30665 10 00 18.50 +23 26 51.4          19.2        704
     K00E26L  C2000 03 09.31985 10 00 17.56 +23 27 27.2          19.5        704
     K00E26L  C2000 03 09.33307 10 00 16.59 +23 28 04.1          19.0        704
     K00E26L  C2000 03 09.34632 10 00 15.62 +23 28 41.4          19.6        704

Observer details:
704 Lincoln Laboratory ETS, New Mexico.  Observers M. Blythe, F. Shelly,
    M. Bezpalko, M. Elowitz, R. Huber.  Measurers J. Stuart, H. Viggh,
    R. Sayer, J. B. Evans.  1.0-m f/2.15 reflector + CCD.

Orbital elements:
2000 EL26
Epoch 2000 Feb. 26.0 TT = JDT 2451600.5                 Williams
M 301.39473              (2000.0)            P               Q
n   0.44662396     Peri.   96.52891     -0.30823506     +0.92795880
a   1.6950195      Node   152.48537     -0.94793618     -0.31813244
e   0.3117892      Incl.   26.96547     +0.08005088     -0.19412425
P   2.21           H   18.1           G   0.15
From 14 observations 2000 Mar. 5-9.

Ephemeris:
2000 EL26                a,e,i = 1.70, 0.31, 27                  q = 1.1665
Date    TT    R. A. (2000) Decl.     Delta      r     Elong.  Phase     V
2000 03 07    10 03.05   +21 39.9    0.560    1.523   156.7    14.9    18.6
2000 03 12    09 57.26   +25 28.6    0.561    1.502   148.6    20.2    18.7
2000 03 17    09 52.18   +29 02.2    0.568    1.480   140.9    25.1    18.9
2000 03 22    09 48.10   +32 15.9    0.580    1.459   133.7    29.6    19.0
2000 03 27    09 45.28   +35 07.3    0.596    1.437   127.0    33.7    19.2
2000 04 01    09 43.91   +37 35.7    0.614    1.416   120.9    37.3    19.3
2000 04 06    09 44.12   +39 41.9    0.634    1.395   115.3    40.4    19.4
2000 04 11    09 45.98   +41 27.8    0.656    1.375   110.3    43.1    19.5
2000 04 16    09 49.47   +42 55.3    0.677    1.355   105.8    45.5    19.6
2000 04 21    09 54.53   +44 06.3    0.699    1.336   101.7    47.5    19.7
2000 04 26    10 01.06   +45 02.4    0.719    1.317    98.1    49.2    19.8
2000 05 01    10 08.98   +45 44.9    0.738    1.299    94.9    50.6    19.9
2000 05 06    10 18.19   +46 14.7    0.756    1.281    92.0    51.9    19.9

2000 05 16    10 40.02   +46 39.5    0.785    1.249    87.2    53.9    20.0
2000 05 26    11 05.54   +46 20.3    0.806    1.221    83.5    55.5    20.1
2000 06 05    11 33.90   +45 17.1    0.819    1.199    80.9    56.7    20.1
2000 06 15    12 04.36   +43 28.6    0.822    1.182    79.3    57.6    20.1
2000 06 25    12 36.22   +40 52.0    0.818    1.171    78.5    58.3    20.1
2000 07 05    13 09.02   +37 23.6    0.809    1.167    78.5    58.7    20.1
2000 07 15    13 42.47   +33 00.5    0.797    1.169    79.3    58.7    20.1
2000 07 25    14 16.31   +27 42.2    0.787    1.178    80.5    58.2    20.0
2000 08 04    14 50.49   +21 32.6    0.782    1.194    82.2    57.3    20.0
2000 08 14    15 24.97   +14 44.2    0.788    1.215    83.9    56.0    20.0
2000 08 24    15 59.68   +07 38.0    0.807    1.242    85.4    54.2    20.1
2000 09 03    16 34.56   +00 40.1    0.844    1.273    86.3    52.3    20.2
2000 09 13    17 09.49   -05 43.0    0.899    1.308    86.5    50.2    20.3
2000 09 23    17 44.24   -11 12.6    0.971    1.345    85.9    48.1    20.5
2000 10 03    18 18.58   -15 39.3    1.059    1.385    84.5    46.0    20.7
2000 10 13    18 52.26   -19 02.0    1.160    1.427    82.4    43.9    20.9
2000 10 23    19 25.00   -21 25.4    1.271    1.469    79.8    41.8    21.1
2000 11 02    19 56.64   -22 56.6    1.390    1.513    76.8    39.7    21.3
2000 11 12    20 27.06   -23 43.7    1.514    1.556    73.5    37.6    21.5
2000 11 22    20 56.19   -23 54.1    1.642    1.599    69.9    35.5    21.7
2000 12 02    21 24.06   -23 34.7    1.771    1.642    66.1    33.3    21.8
2000 12 12    21 50.71   -22 51.5    1.900    1.684    62.2    31.2    22.0

Gareth V. Williams           (C) Copyright 2000 MPC           M.P.E.C. 2000-E46

Read MPEC 2000-E45 Read MPEC 2000-E47


Our Web policy. Index to the CBAT/MPC/ICQ pages.


Valid HTML 4.01!